AO-07 1 07530U 74089B 17236.47932385 -.00000042 00000-0 15893-4 0 9990 2 07530 101.6372 203.8362 0011847 187.9663 282.5236 12.53628324957186 UO-11 1 14781U 84021B 17236.58866650 .00000107 00000-0 19508-4 0 9994 2 14781 097.6914 279.7609 0007981 345.8365 014.2624 14.82919930779488 LO-19 1 20442U 90005G 17236.36822106 .00000007 00000-0 18648-4 0 9991 2 20442 98.5775 172.1985 0010897 310.8749 49.1491 14.32867153441383 HUBBLE 1 20580U 90037B 17236.48252970 .00000580 00000-0 24736-4 0 9999 2 20580 028.4694 276.2240 0002670 182.5481 282.8317 15.08822048300526 MET-2/21 1 22782U 93055A 17236.58076515 .00000040 00000-0 22593-4 0 9998 2 22782 082.5521 329.3095 0021287 237.0895 253.0426 13.83803414210887 AO-27 1 22825U 93061C 17236.90292029 -.00000003 00000-0 16536-4 0 9999 2 22825 98.8190 203.3537 0009241 126.2313 233.9724 14.30003543247223 IO-26 1 22826U 93061D 17236.84823442 -.00000003 00000-0 16358-4 0 9994 2 22826 98.8132 203.3721 0009881 117.7269 242.4916 14.30332831247391 FO-29 1 24278U 96046B 17236.48953215 -.00000030 00000-0 39137-5 0 9996 2 24278 098.5528 110.6305 0350701 160.2639 201.2469 13.53077788037868 NOAA-15 1 25338U 98030A 17236.56585856 .00000022 00000-0 28161-4 0 9994 2 25338 098.7818 247.6117 0010796 014.7264 345.4228 14.25812313002492 GO-32 1 25397U 98043D 17236.36945670 -.00000014 00000-0 12704-4 0 9993 2 25397 98.6131 177.2819 0001923 126.5783 233.5573 14.23626787993496 ISS 1 25544U 98067A 17236.92892593 .00001941 00000-0 36498-4 0 9995 2 25544 51.6393 55.6371 0005064 174.4795 337.0202 15.54195457 72448 NO-44 1 26931U 01043C 17236.48758690 -.00000029 00000-0 20869-4 0 9996 2 26931 067.0503 274.9717 0006973 257.7499 102.2821 14.30470309830041 SO-50 1 27607U 02058C 17236.46549269 .00000018 00000-0 23064-4 0 9999 2 27607 064.5548 276.9138 0031301 061.6694 298.7560 14.75349921789053 CO-55 1 27844U 03031E 17236.46597656 .00000056 00000-0 45204-4 0 9999 2 27844 098.6901 244.4801 0010402 144.2540 215.9336 14.22054007733984 CO-57 1 27848U 03031J 17236.48427953 .00000036 00000-0 36330-4 0 9995 2 27848 098.6993 244.7856 0010154 153.3136 206.8565 14.21666770733874 RS-22 1 27939U 03042A 17236.83105706 .00000144 00000-0 34375-4 0 9993 2 27939 97.9490 19.3958 0013213 14.7455 146.4240 14.66589166743378 NOAA-18 1 28654U 05018A 17236.56003596 .00000019 00000-0 35756-4 0 9992 2 28654 099.1796 260.4350 0013425 237.8017 122.1852 14.12346001631813 CO-58 1 28895U 05043F 17236.41119776 .00000156 00000-0 38862-4 0 9992 2 28895 097.8725 035.5874 0015480 289.3480 070.6049 14.63423330630235 Falconsat-3 1 30776U 07006E 17236.57085335 .00004692 00000-0 14685-3 0 9999 2 30776 035.4372 352.6856 0003759 236.2925 123.7442 15.32606262578755 CO-65 1 32785U 08021C 17236.83770657 .00000296 00000-0 37976-4 0 9991 2 32785 97.5639 257.9660 0011771 305.1227 54.8886 14.87928535505100 AAUSAT2 1 32788U 08021F 17236.35255484 .00000534 00000-0 55242-4 0 9998 2 32788 097.5543 269.7536 0010378 261.2253 098.7793 14.93946271505752 DO-64 1 32789U 08021G 17236.24198505 .00002955 00000-0 21195-3 0 9995 2 32789 097.5534 293.0261 0011892 225.1416 134.8846 15.05060835507008 CO-66 1 32791U 08021J 17236.26123707 .00000397 00000-0 46356-4 0 9997 2 32791 097.5602 261.9895 0011874 289.1509 070.8424 14.90278008505204 RS-30 1 32953U 08025A 17236.37342547 .00000006 00000-0 -28147-4 0 9994 2 32953 82.5036 197.2525 0019703 133.1537 227.1194 12.43078589419896 PRISM 1 33493U 09002B 17236.86853244 .00000195 00000-0 23168-4 0 9991 2 33493 98.1597 122.1701 0013919 213.5843 146.4487 14.95754962466042 NOAA-19 1 33591U 09005A 17236.56922527 .00000097 00000-0 77694-4 0 9995 2 33591 099.0992 204.3891 0015077 080.5099 279.7776 14.12204742440043 TISAT-1 1 36799U 10035E 17236.82423972 .00000683 00000-0 75979-4 0 9997 2 36799 98.0698 0.9735 0013837 101.1931 259.0842 14.90456798386008 JUGNU 1 37839U 11058B 17236.59688787 .00000308 00000-0 22152-4 0 9999 2 37839 019.9625 035.6781 0018910 217.5491 224.1587 14.12589962303273 SRMSAT 1 37841U 11058D 17235.91804197 .00000301 00000-0 20477-4 0 9993 2 37841 019.9725 082.8701 0011893 105.2584 024.5680 14.10580737302760 AO-71 1 37854U 11061E 17236.29876265 .00001777 00000-0 10225-3 0 9995 2 37854 101.6937 144.5576 0166841 233.3296 125.2483 15.04281820317177 HRBE 1 37855U 11061F 17236.28900224 .00002042 00000-0 11404-3 0 9994 2 37855 101.7067 142.3045 0180003 240.3278 117.9906 15.03250299316558 ALMASAT-1 1 38078U 12006B 17236.78351684 .00038918 39680-5 41486-3 0 9992 2 38078 69.4384 307.4469 0301476 190.3633 169.1249 15.24527974295230 HORYU-2 1 38340U 12025D 17235.97595015 .00000258 00000-0 46137-4 0 9997 2 38340 98.3776 242.2903 0013009 77.9915 282.2750 14.75374083283284 RS-40 1 38735U 12041C 17236.81076809 .00000018 00000-0 56533-4 0 9997 2 38735 82.4740 281.3982 0015845 236.0542 123.9032 12.42575182230216 BEESAT-3 1 39134U 13015E 17236.73823708 .00002440 00000-0 12710-3 0 9991 2 39134 64.8662 5.1554 0039123 252.6451 107.0395 15.17985285239883 BEESAT-2 1 39136U 13015G 17236.49062997 .00001493 00000-0 88431-4 0 9992 2 39136 064.8705 017.6076 0033503 273.2044 086.5248 15.15234599239233 ZACUBE-1 1 39417U 13066B 17236.34440280 .00000332 00000-0 48376-4 0 9994 2 39417 097.6242 275.2619 0060420 048.1315 312.5031 14.80746068202869 TRITON-1 1 39427U 13066M 17236.85336497 .00000215 00000-0 42157-4 0 9996 2 39427 97.6375 247.6093 0115563 128.3429 232.8231 14.67490364201115 GOMX-1 1 39430U 13066Q 17236.75870793 .00000185 00000-0 42530-4 0 9992 2 39430 97.6684 230.5818 0151647 185.9253 174.0160 14.58900835199927 LO-74 1 39440U 13066AA 17236.73975267 .00000313 00000-0 50630-4 0 9996 2 39440 97.6250 264.2813 0082279 78.2781 282.7646 14.75486026202202 AO-73 1 39444U 13066AE 17236.56035371 .00000393 00000-0 55131-4 0 9993 2 39444 097.6257 276.6090 0059498 044.0304 316.5626 14.81487028201142 SPROUT 1 39770U 14029E 17236.83359155 .00000815 00000-0 98621-4 0 9994 2 39770 97.8756 335.5421 0010777 100.8042 259.4392 14.86327753176330 DUCHIFAT-1 1 40021U 14033M 17236.26353814 .00000585 00000-0 66530-4 0 9991 2 40021 097.9142 149.5174 0014623 077.9005 282.3850 14.89948892172736 NANOSATCBR1 1 40024U 14033Q 17236.29659237 .00000558 00000-0 64850-4 0 9998 2 40024 97.9098 148.3297 0013899 79.0482 281.2298 14.89266584172687 EO-79 1 40025U 14033R 17236.37990500 .00000437 00000-0 53030-4 0 9993 2 40025 097.9076 147.3525 0014068 081.7965 278.4847 14.88461749172128 DTUSAT-2 1 40030U 14033W 17236.26792530 .00000397 00000-0 49160-4 0 9994 2 40030 097.9040 146.2836 0013523 077.2756 282.9971 14.88083311172067 EO-80 1 40032U 14033Y 17236.31312199 .00000409 00000-0 50599-4 0 9993 2 40032 097.9046 146.3343 0013454 077.6095 282.6626 14.88018149172052 ANTELSAT 1 40034U 14033AA 17236.52034621 .00000316 00000-0 54646-4 0 9993 2 40034 097.8494 118.3015 0060516 073.4084 287.3759 14.73730882170458 VELOX-1 1 40057U 14034E 17236.71440734 .00000359 00000-0 58372-4 0 9993 2 40057 98.1923 337.9755 0010867 190.9026 169.1954 14.77167219169879 DAURIA DX 1 1 40071U 14037C 17236.70616747 .00000158 00000-0 27795-4 0 9992 2 40071 98.3441 350.5186 0008254 183.8307 176.2850 14.81038646169118 UKUBE-1 1 40074U 14037F 17236.81995971 .00000371 00000-0 52214-4 0 9997 2 40074 98.3531 354.8473 0004774 173.6638 186.4658 14.83544191169358 HODOYOSHI-1 1 40299U 14070B 17236.81594182 .00001082 00000-0 49861-4 0 9996 2 40299 97.4021 318.5105 0012248 205.1516 250.1785 15.22355061155389 CHUBUSAT-1 1 40300U 14070C 17236.77794760 .00001051 00000-0 50398-4 0 9991 2 40300 97.3935 315.4118 0019328 218.1148 237.3847 15.20962608155213 QSAT-EOS 1 40301U 14070D 17236.77841027 .00002457 00000-0 10530-3 0 9995 2 40301 97.3871 315.6548 0026499 213.4532 242.1699 15.23414745155276 FIREBIRD FU3 1 40377U 15003B 17236.47911006 .00004387 00000-0 18669-3 0 9992 2 40377 099.1212 074.0717 0136197 135.7651 225.4561 15.15650731141340 FIREBIRD FU4 1 40378U 15003C 17236.80050145 .00003729 00000-0 15918-3 0 9991 2 40378 99.1215 74.4995 0136412 134.6055 226.6399 15.15669968141403 GRIFEX 1 40379U 15003D 17236.76468411 .00003334 00000-0 15122-3 0 9995 2 40379 99.1243 71.9465 0142284 143.1323 217.9789 15.13156208141251 NO-84 1 40654U 15025D 17236.33950216 .00008640 00000-0 15768-3 0 00629 2 40654 054.9943 291.8250 0180953 077.6780 284.4403 15.34435874010171 NO-83 1 40655U 15025E 17236.31374498 .00015696 00000-0 22457-3 0 00677 2 40655 054.9785 262.8494 0147459 093.9926 267.7979 15.44808854010200 DEORBITSAIL 1 40719U 15032E 17236.24838264 .00000518 00000-0 82315-4 0 9995 2 40719 97.9719 129.1287 0015181 287.1448 72.8099 14.76115237114362 NUDT-PHONESAT 1 40900U 15049B 17236.85557261 .00003346 00000-0 15965-3 0 9995 2 40900 97.4433 243.8157 0013590 354.0015 6.1055 15.19686516106889 XW-2A 1 40903U 15049E 17236.85295792 .00003171 00000-0 84007-4 0 9996 2 40903 97.4173 263.3986 0015409 25.4834 334.7167 15.39014869108209 XW-2C 1 40906U 15049H 17236.81824781 .00001010 00000-0 58107-4 0 9993 2 40906 97.4562 240.9438 0014666 343.5126 16.5627 15.14635233106626 XW-2D 1 40907U 15049J 17236.86288972 .00001071 00000-0 61232-4 0 9995 2 40907 97.4532 240.7336 0013969 341.6369 18.4357 15.14745732106630 LILACSAT-2 1 40908U 15049K 17236.86364973 .00000537 00000-0 33878-4 0 9993 2 40908 97.4636 240.4441 0015510 339.5033 20.5574 15.13178857106551 XW-2F 1 40910U 15049M 17236.82434759 .00001593 00000-0 87036-4 0 9990 2 40910 97.4551 241.4899 0014702 338.8613 21.2011 15.15673683106548 XW-2B 1 40911U 15049N 17236.87073476 .00001052 00000-0 60264-4 0 9995 2 40911 97.4574 241.1517 0013890 342.0632 18.0108 15.14705571106534 DCBB 1 40912U 15049P 17236.72687506 .00001824 00000-0 93414-4 0 9995 2 40912 97.4517 243.4287 0014522 330.3930 148.2787 15.17790991106683 TW-1C 1 40926U 15051B 17236.74110611 .00009041 00000-0 20280-3 0 9992 2 40926 97.2241 275.7889 0009362 282.1291 172.0832 15.43582816107496 TW-1A 1 40928U 15051D 17236.73901747 .00004136 00000-0 11802-3 0 9991 2 40928 97.2220 271.3207 0011243 318.3070 135.1501 15.36535873107226 IO-86 1 40931U 15052B 17236.46662658 .00000260 00000-0 -53105-4 0 9999 2 40931 6.0004 105.7954 0013409 133.8246 226.3358 14.76536579103077 GomX-3 1 40949U 98067HA 16292.18357804 .08527750 12374-4 77882-3 0 9992 2 40949 51.6055 106.7696 0006699 286.1344 73.8944 16.38002265 59645 LQSat 1 40958U 15057A 17236.72234314 .00000057 00000-0 16623-4 0 9993 2 40958 97.9742 310.8301 0017475 202.4577 157.5870 14.72978907101204 AO-85 1 40967U 15058D 17236.35618192 .00000259 00000-0 48933-4 0 00683 2 40967 064.7782 012.0931 0175484 052.8757 308.8261 14.75473305009850 ATHENOXAT-1 1 41168U 15077C 17236.71405093 .00002734 00000-0 11702-3 0 9998 2 41168 14.9855 28.7647 0011819 248.1301 304.1518 15.11751489 93429 ChubuSat-2 1 41338U 16012B 17236.77110523 .00000460 00000-0 29481-4 0 9992 2 41338 31.0042 36.6678 0013936 17.6457 342.4661 14.99777913 83294 ChubuSat-3 1 41339U 16012C 17236.75654325 .00000457 00000-0 29073-4 0 9997 2 41339 31.0120 35.7949 0013911 24.2620 335.8664 14.99980542 83273 Horyu-4 1 41340U 16012D 17236.56691276 .00000713 00000-0 48306-4 0 9999 2 41340 031.0061 034.0247 0014188 031.3419 328.8060 15.00653440083295 OUFTI-1 1 41458U 16025C 17236.60495952 .00003771 00000-0 20249-3 0 9993 2 41458 098.1775 278.0938 0174576 061.3251 300.5406 15.03408226072868 e-st@r-II 1 41459U 16025D 17236.76649193 .00003045 00000-0 16409-3 0 9996 2 41459 98.1810 278.2053 0176419 61.1760 300.7044 15.03244952 72875 AAUSAT4 1 41460U 16025E 17236.78846545 .00004452 00000-0 23841-3 0 9991 2 41460 98.1739 278.3671 0167909 58.9755 302.7818 15.04217862 72902 NODES 1 1 41477U 98067HX 17236.43591152 .00236534 33002-4 59202-3 0 9998 2 41477 051.6235 005.5875 0005725 329.3484 030.7189 15.95249944072918 NODES 2 1 41478U 98067HY 17236.45146913 .00210819 28142-4 57166-3 0 9996 2 41478 051.6275 006.5096 0005331 328.2053 031.8632 15.93791648072907 LO-87 1 41557U 16033B 17236.81417026 .00002385 00000-0 91893-4 0 9995 2 41557 97.4601 316.3282 0015707 122.2661 238.0103 15.27239702 68904 NuSat2 1 41558U 16033C 17236.52659578 .00002394 00000-0 92738-4 0 9993 2 41558 097.4630 316.1030 0015161 121.9004 238.3712 15.27056635068852 Lapan A3 1 41603U 16040E 17236.86863008 .00000198 00000-0 12610-4 0 9995 2 41603 97.4555 298.0113 0012925 187.9768 274.9016 15.19384987 65083 Swayam 1 41607U 16040J 17236.62078575 .00002480 00000-0 11477-3 0 9995 2 41607 97.4546 298.2131 0014040 190.6025 169.4917 15.20999054 65005 Pratham 1 41783U 16059A 17236.21948604 .00000088 00000-0 26674-4 0 9992 2 41783 098.1613 296.8685 0032527 308.9364 050.8940 14.62851732048545 AlSat 1N 1 41789U 16059G 17236.76680176 .00000119 00000-0 31996-4 0 9993 2 41789 98.1616 298.0442 0027300 301.4721 58.3809 14.64066623 48644 ScatSat 1 41790U 16059H 17236.55869366 .00000026 00000-0 17650-4 0 9990 2 41790 098.3044 283.9985 0017216 295.8265 064.1154 14.51719735048173 TY-1 1 41844U 16066D 17236.77914127 .00001692 00000-0 76522-4 0 9991 2 41844 97.4062 242.9034 0016336 4.9421 80.1585 15.22195917 43774 CAS-2T 1 41845U 16066E 17236.66649493 .00000284 00000-0 52873-4 0 9990 2 41845 98.7760 253.9278 0367478 45.1798 317.8642 14.37779541 41336 Pegasus-1 1 41846U 16066F 17236.75506208 .00000651 00000-0 10887-3 0 9993 2 41846 98.7790 253.7538 0370064 46.3980 316.7291 14.37072133 41328 STARS-C 1 41895U 98067KR 17236.55533135 .00043211 00000-0 43558-3 0 9995 2 41895 051.6371 048.1968 0004319 214.8406 145.2307 15.64929996038687 Tancredo 1 1 41931U 98067KT 17236.55344801 .00110371 00000-0 71172-3 0 9991 2 41931 051.6337 041.3712 0004232 205.0839 154.9956 15.75291080034342 TO-89 1 41932U 98067KU 17236.49597152 .00023641 00000-0 28241-3 0 9996 2 41932 051.6404 051.5907 0005378 163.3587 196.7584 15.60885269034203 AOBA-V3LOX3 1 41935U 98067KX 17236.85306021 .00022981 00000-0 26937-3 0 9998 2 41935 51.6402 49.4701 0004718 169.8034 190.3056 15.61401928 34365 OSNSAT 1 41939U 98067KZ 17236.50932533 .00057691 00000-0 52206-3 0 9991 2 41939 051.6370 046.3779 0005490 178.1257 181.9760 15.67489728033639 EO-88 1 42017U 17008BX 17236.56381834 .00002543 00000-0 11053-3 0 9994 2 42017 097.4892 297.8755 0006147 357.0489 003.0710 15.23197427028891 HAVELSAT 1 42700U 98067LH 17236.51578598 .00023678 00000-0 32288-3 0 9992 2 42700 051.6394 056.1994 0006393 214.8793 145.1781 15.57365466015586 SOMP2 1 42701U 98067LJ 17236.58734905 .00019955 00000-0 27589-3 0 9997 2 42701 051.6400 055.9305 0006323 215.3550 144.7023 15.57111533015586 Columbia 1 42702U 98067LK 17236.58126442 .00041822 00000-0 51902-3 0 9993 2 42702 51.6389 55.1366 0006819 212.4361 147.6213 15.59566654 15527 PHOENIX 1 42706U 98067LP 17236.58413003 .00018938 00000-0 26162-3 0 9991 2 42706 051.6401 055.9110 0001917 182.4320 177.6663 15.57187584015505 X-CubeSat 1 42707U 98067LQ 17236.58483520 .00019832 00000-0 27306-3 0 9998 2 42707 51.6394 55.9125 0001976 184.0506 176.0470 15.57242556 15490 qbee 1 42708U 98067LR 17236.58725069 .00019265 00000-0 26594-3 0 9994 2 42708 051.6395 055.9286 0002015 184.5626 175.5348 15.57193947015456 ZA-AeroSat 1 42713U 98067LU 17236.86315896 .00017265 00000-0 24330-3 0 9998 2 42713 51.6399 54.7712 0002789 150.1246 209.9905 15.56720926 15208 LINK 1 42714U 98067LV 17236.59592425 .00023806 00000-0 32556-3 0 9991 2 42714 51.6388 55.9838 0002933 158.5912 201.5203 15.57300214 15273 UPSat 1 42716U 98067LX 17236.58203423 .00022026 00000-0 29983-3 0 9992 2 42716 51.6397 55.8937 0004780 216.2191 143.8478 15.57469163 15290 SpaceCube 1 42717U 98067LY 17236.59521386 .00018556 00000-0 25773-3 0 9991 2 42717 51.6393 55.9813 0004638 216.1195 143.9485 15.57050713 14538 Hoopoe 1 42718U 98067LZ 17236.58883465 .00020327 00000-0 27934-3 0 9990 2 42718 51.6397 55.9402 0004725 215.1785 144.8895 15.57269607 14537 Challenger 1 42721U 98067MA 17236.59385658 .00026201 00000-0 35336-3 0 9998 2 42721 51.6390 55.9690 0007981 198.7870 161.2829 15.57587688 14230 NJUST-1 1 42722U 98067MB 17236.88253599 .00016168 00000-0 23036-3 0 9994 2 42722 51.6398 54.8973 0007742 200.0067 160.0622 15.56454231 14279 UNSW-EC0 1 42723U 98067MC 17236.86901163 .00021001 00000-0 29128-3 0 9990 2 42723 51.6398 54.8100 0007668 199.7268 160.3429 15.56978903 14259 DUTHsat 1 42724U 98067MD 17236.85803025 .00026911 00000-0 36489-3 0 9991 2 42724 51.6396 54.7354 0006915 202.4927 157.5763 15.57436901 14174 LO-90 1 42725U 98067ME 17236.88450694 .00018339 00000-0 25970-3 0 9993 2 42725 51.6399 54.9123 0006741 202.7001 157.3693 15.56523584 14170 nSIGHT1 1 42726U 98067MF 17236.58254609 .00014266 00000-0 20897-3 0 9997 2 42726 51.6400 56.6465 0006575 201.8286 158.2426 15.55822158 14130 QBITO 1 42728U 98067MH 17236.61555476 .00019671 00000-0 27504-3 0 9996 2 42728 051.6400 056.1192 0003979 205.7913 154.2881 15.56829428013946 Aalto-2 1 42729U 98067MJ 17236.87213554 .00019604 00000-0 27400-3 0 9994 2 42729 51.6397 54.8306 0003965 207.0998 152.9787 15.56841454 13995 SUSat 1 42730U 98067MK 17236.87524885 .00018186 00000-0 25592-3 0 9992 2 42730 51.6394 54.8501 0004017 204.8649 155.2150 15.56714763 13989 i-INSPIRE II 1 42731U 98067ML 17236.86683921 .00024392 00000-0 33564-3 0 9993 2 42731 51.6391 54.7885 0007679 154.0216 206.1162 15.57094469 14035 PolyITAN-2-SAU 1 42732U 98067MM 17236.87011034 .00020319 00000-0 28287-3 0 9996 2 42732 51.6389 54.8090 0007770 153.3372 206.8021 15.56902224 14036 SNUSAT-1 1 42733U 98067MN 17236.87615109 .00019815 00000-0 27772-3 0 9997 2 42733 51.6390 54.8500 0007682 154.4363 205.7010 15.56737812 14034 ExAlta-1 1 42734U 98067MP 17236.86665286 .00022914 00000-0 31596-3 0 9991 2 42734 51.6392 54.7886 0009336 176.8989 183.2063 15.57062488 13985 Aoxiang-1 1 42735U 98067MQ 17236.55954676 .00016305 00000-0 23181-3 0 9990 2 42735 051.6395 056.4898 0008390 195.6971 164.3762 15.56500620015353 BeEagleSat 1 42736U 98067MR 17236.55836987 .00017665 00000-0 24966-3 0 9997 2 42736 051.6394 056.4819 0008328 194.9614 165.1132 15.56595160014041 Atlantis 1 42737U 98067MS 17236.56923227 .00039235 00000-0 50501-3 0 9994 2 42737 051.6382 055.8011 0008520 195.4020 164.6714 15.58615727013949 CAS-4B 1 42759U 17034B 17236.87240741 .00000476 00000-0 43253-4 0 9992 2 42759 43.0192 269.6244 0007210 46.9239 311.4323 15.08953427 10679 CAS-4A 1 42761U 17034D 17236.86887731 .00000519 00000-0 45833-4 0 9994 2 42761 43.0194 269.5964 0007655 48.0449 309.8912 15.09027766 10664 UCLSat 1 42765U 17036A 17236.45201788 .00002345 00000-0 10924-3 0 9998 2 42765 097.4440 295.4880 0013164 042.6556 317.5699 15.20823214010181 NIUSat 1 42766U 17036B 17236.56921946 .00001596 00000-0 78081-4 0 9992 2 42766 097.4446 295.4869 0016949 026.5574 333.6525 15.19551506009477 LituanicaSAT 2 1 42768U 17036D 17236.56380239 .00003682 00000-0 17481-3 0 9992 2 42768 097.4439 295.4917 0016967 030.0973 330.1234 15.19752526009483 InflateSail 1 42770U 17036F 17236.81952149 .00712409 00000-0 12924-1 0 9997 2 42770 97.4430 296.6831 0003990 232.3679 127.7209 15.47332577 9514 Aalto 1 1 42775U 17036L 17236.74635007 .00001341 00000-0 65267-4 0 9992 2 42775 97.4444 295.7081 0015139 27.5786 332.6249 15.20036329 9453 URSA MAIOR 1 42776U 17036M 17236.61315231 .00001412 00000-0 68442-4 0 9990 2 42776 097.4447 295.5820 0015016 028.4532 331.7520 15.20075275009432 Max Valier Sat 1 42778U 17036P 17236.59760814 .00001628 00000-0 77621-4 0 9998 2 42778 097.4461 295.6156 0013720 034.8197 325.3934 15.20463969009429 Pegasus 1 42784U 17036V 17236.58896434 .00001832 00000-0 86373-4 0 9993 2 42784 097.4446 295.6126 0013666 041.5376 318.6895 15.20685128009423 NUDATSat 1 42787U 17036Y 17236.78155898 .00002968 00000-0 13734-3 0 9991 2 42787 97.4442 295.8137 0013287 41.8086 318.4162 15.20842652 9293 SUCHAI 1 1 42788U 17036Z 17236.78250091 .00002415 00000-0 11252-3 0 9993 2 42788 97.4441 295.8120 0013304 41.6162 318.6083 15.20795506 9523 SKCUBE 1 42789U 17036AA 17236.58345175 .00002258 00000-0 10531-3 0 9994 2 42789 097.4441 295.6186 0013146 042.2811 317.9436 15.20829365009419 VZLUSAT 1 1 42790U 17036AB 17236.58032609 .00002510 00000-0 11638-3 0 9991 2 42790 097.4438 295.6206 0012870 042.9341 317.2897 15.20919817009414 VENTA 1 1 42791U 17036AC 17236.57916375 .00002267 00000-0 10539-3 0 9990 2 42791 097.4440 295.6239 0012760 043.2974 316.9262 15.20929546009409 Robusta 1B 1 42792U 17036AD 17236.64423701 .00002351 00000-0 10914-3 0 9996 2 42792 97.4438 295.6878 0012723 43.5236 316.7001 15.20954930 9436 D-SAT 1 42794U 17036AF 17236.76492980 .00001282 00000-0 60566-4 0 9997 2 42794 97.4438 295.8296 0010933 42.1400 318.0675 15.21180916 9442 BIRD-J 1 42820U 98067MU 17236.86515522 .00017758 00000-0 25725-3 0 9991 2 42820 51.6397 55.5295 0003612 140.9688 219.1564 15.55946405 7546 BIRD-G 1 42821U 98067MV 17236.86656578 .00017082 00000-0 24830-3 0 9995 2 42821 51.6397 55.5390 0003661 142.9695 217.1549 15.55884610 7525 BIRD-M 1 42822U 98067MW 17236.86726784 .00017346 00000-0 25214-3 0 9993 2 42822 51.6397 55.5437 0003676 145.5810 214.5420 15.55871827 7527 BIRD-B 1 42823U 98067MX 17236.86862077 .00017567 00000-0 25544-3 0 9991 2 42823 51.6401 55.5541 0007151 161.3364 198.7891 15.55835167 7524 BIRD-N 1 42824U 98067MY 17236.48492609 .00018894 00000-0 27491-3 0 9997 2 42824 051.6398 057.4917 0007029 161.0016 199.1239 15.55761399007484 TechnoSat 1 42829U 17042E 17236.75203310 .00000330 00000-0 39112-4 0 9995 2 42829 97.6102 144.9670 0015855 103.4644 256.8343 14.90645091 6173 Mayak 1 42830U 17042F 17236.61669885 .00001042 00000-0 11139-3 0 9994 2 42830 097.6107 144.8423 0016174 100.9958 259.3081 14.90706784006141 OBJECT MZ 1 42910U 98067MZ 17236.64106752 .00015797 00000-0 23684-3 0 9991 2 42910 51.6384 57.0321 0008018 181.5936 178.5031 15.55079659 1090 OBJECT NA 1 42911U 98067NA 17236.51284253 .00018727 00000-0 28001-3 0 9995 2 42911 051.6400 057.6767 0007644 176.4175 183.6872 15.55017847001059 OBJECT NB 1 42912U 98067NB 17235.74205447 .00016113 00000-0 24326-3 0 9991 2 42912 51.6367 61.5259 0006986 185.8847 174.2063 15.54879845 959 OBJECT NC 1 42913U 98067NC 17235.29398148 .00020746 00000-0 31061-3 0 9994 2 42913 51.6383 63.7655 0006101 189.6527 180.9181 15.54917675 856 OBJECT ND 1 42914U 98067ND 17236.77073139 .00012265 00000-0 18719-3 0 9991 2 42914 51.6418 56.4033 0009539 179.8839 180.2453 15.54826391 1119 /EX